Regional Weather Roundup
Issued by NWS Nashville, TN

Home | Current Version | Previous Version | Text Only | Print | Product List | Glossary On
Versions: 1 2 3 4 5 6 7 8 9 10 11 12 13 14 15 16 17 18 19 20 21 22 23 24 25 26 27 28 29 30 31 32 33 34 35 36 37 38 39 40 41 42 43 44 45 46 47 48 49 50
000
ASUS44 KOHX 270110
RWROHX
MIDDLE TENNESSEE HOURLY WEATHER ROUNDUP
NATIONAL WEATHER SERVICE NASHVILLE TN
800 PM CDT THU APR 26 2018

NOTE: "FAIR" INDICATES FEW OR NO CLOUDS BELOW 12,000 FEET WITH
NO SIGNIFICANT WEATHER AND/OR OBSTRUCTIONS TO VISIBILITY.

* THESE REPORTS ARE NOT UNDER NWS QUALITY CONTROL AND MAY NOT
  REPORT WEATHER SUCH AS PRECIPITATION AND FOG.


TNZ005>011-023>034-057-059-062>066-078-080-270200
...NORTHERN MIDDLE TENNESSEE...

CITY           SKY/WX    TMP DP  RH WIND       PRES   REMARKS
CLARKSVILLE      N/A     57  50  77 SW5       29.88R
CROSSVILLE     LGT RAIN  50  48  93 NW5       29.90R FOG
GALLATIN       CLOUDY    57  54  88 CALM      29.92R
LEBANON        MOCLDY    55  54  94 CALM      29.87S
LIVINGSTON     CLOUDY    54  50  87 CALM      29.88S
NASHVILLE      MOCLDY    55  52  89 CALM      29.90R
PORTLAND       CLOUDY    55  54  94 S5        29.88R
SMYRNA           N/A     53  52  96 NW3       29.90R
SPARTA         CLOUDY    54  54 100 CALM      29.88S FOG
SPRINGFIELD    PTCLDY    55  55 100 S3        29.88R
WEST NASHVILLE PTCLDY    55  54  94 CALM      29.88R
$$
TNZ056-058-060-061-075>077-079-093>097-270200
...SOUTHERN MIDDLE TENNESSEE...

CITY           SKY/WX    TMP DP  RH WIND       PRES   REMARKS
COLUMBIA       CLEAR     55  55 100 N5        29.88R
LEWISBURG      PTCLDY    54  52  94 NE3       29.87S
MCMINNVILLE    CLOUDY    52  50  93 E5        29.87F
MURFREESBORO   CLEAR     55  54  94 N5        29.87S
PULASKI        PTCLDY    54  54 100 CALM      29.87S
SHELBYVILLE    MOCLDY    54  52  94 NE5       29.87F
TULLAHOMA      MOCLDY    54  52  94 NE6       29.87R
WINCHESTER     CLOUDY    54  52  94 NE3       29.87R
$$


...KEY TO REMARKS...
VSB - VISIBILITY IN MILES
WCI - WIND CHILL INDEX
HX  - HEAT INDEX




USA.gov is the U.S. government's official web portal to all federal, state and local government web resources and services.